Location: Songkhla
(7.2000°N, 100.6000°E)
Time: 21:01:27
(UTC+07:00)

NATO 3D Rocket - Pass Details

Date: 16 April 2026
Orbit: 670 x 2292 km, 21.5° (Epoch: 20 May)

Event Time Altitude Azimuth Distance (km) Brightness Sun altitude
Rises 20:17:28 0° 281° (WNW) 3,235 8.0 -27.8°
Reaches altitude 10° 20:19:42 10° 276° (W) 2,431 7.0 -28.3°
Maximum altitude 20:25:19 53° 200° (SSW) 1,242 4.4 -29.7°
Enters shadow 20:25:48 52° 185° (S) 1,279 4.4 -29.8°
